Погода в Пуэрто-Плата

Доминиканская Республика     19°47′23″N   70°41′24″W
темп.,
°C
ветер,
м/с
пор.,
м/с
влажн.,
%
обл.,
%
осадки,
мм/ч
давл.,
гПа
погр.,
м
8 марта, пн
пн823:00+22юз129094 0.4 101942
02:00+20юз119347 0.4 101835
05:00+20юз12920 0.1 101736
08:00+22зюз12840 0.1 101980
11:00+27ссв33592 0.1 10201130
14:00+27ссв56657 0.4 10191007
17:00+23св478751 0.9 1018772
20:00+21св389469 4.7 1019511
9 марта, вт
вт923:00+21всв499593 5.9 1021590
02:00+21св499596 12.3 1019602
05:00+21всв499699 6.6 1019579
08:00+21всв5109699 14.3 1020730
11:00+21всв41096100 7.1 1021723
14:00+21всв41096100 12.3 1019741
17:00+21всв51196100 5.9 1018742
20:00+21всв41096100 13.0 1019662
10 марта, ср
ср1023:00+21в3896100 6.6 1020554
02:00+20в2597100 9.6 1018255
05:00+20в1297100 1.4 1018132
08:00+20юв2495100 1.5 1019169
11:00+25в366468 0.4 10201006
14:00+25всв366383 0.8 10171059
17:00+24всв467196 0.2 1016947
20:00+21всв378675 0.3 1018391
11 марта, чт
чт1123:00+21всв398990 0.8 1019583
02:00+19вюв239568 1.6 1018173
05:00+18юв12966 1.5 1017123
08:00+20юв12929 2.9 1018165
11:00+24в357819 1.8 1018688
14:00+24всв368510 5.6 1016737
17:00+23всв368090 1.4 1015845
20:00+21вюв259389 1.6 1017282
12 марта, пт
пт1223:00+19вюв23968 0.3 1018134
02:00+19юв12967 0.3 1017110
05:00+18юв12951 0.0 101688
08:00+20ююв11871 0.0 101886
11:00+26св346143 0.0 10181064
14:00+26св446143 0.7 10161014
17:00+24св457069 0.8 1015886
20:00+21в238884 0.9 1017177